Language selection

My Weather Profile Weather Topics  | 

Atlantic - Labrador: Past 24 Hour Conditions

 

Mary's Harbour

10:30 PM NDT 13 June 2021
Disclaimer

This table is a summary of hourly weather conditions for the past 24 hours.
Please note that these observations might not always be representative of weather conditions over their associated marine area.

Date / Time
(NDT)
Wind(knots) Conditions Visibility(km) Pressure(kPa) Air tempC) Relative humidity(%) Dew pointC)
13 June 2021
22:30 NNE 4 Mist 4 101.3 4 99 4
21:30 N 7 Cloudy 13 101.2 4 98 3
20:30 N 9 Mist 4 101.1 4 97 4
19:30 N 6 Cloudy 16 101.1 5 95 4
18:30 NNE 6 Cloudy 16 101.0 5 93 4
17:30 NE 8 Cloudy 16 101.0 5 90 4
16:30 NE 9 Cloudy 16 101.0 6 86 4
15:30 NNE 6 Cloudy 16 101.0 6 90 4
14:30 NE 7 gust 15 Cloudy 16 101.0 8 79 4
13:30 ENE 13 gust 19 Partly Cloudy 16 100.9 8 81 4
12:30 ENE 8 Mostly Cloudy 16 100.9 8 79 5
11:30 ENE 9 Cloudy 13 100.9 7 85 4
10:30 ENE 10 Cloudy 16 101.0 7 83 4
9:30 E 8 Cloudy 16 101.0 6 86 4
8:30 NE 7 Cloudy 16 101.0 6 87 4
7:30 ENE 5 Cloudy 16 101.0 5 90 4
6:30 ENE 6 Cloudy 16 101.0 5 94 4
5:30 ENE 4 Partly Cloudy 16 100.9 5 96 4
4:30 E 5 Cloudy 16 101.0 5 94 4
3:30 E 3 Cloudy 16 101.0 5 92 4
2:30 E 4 Cloudy 16 101.0 5 96 4
1:30 E 4 Cloudy 16 101.0 5 92 4
0:30 E 6 Partly Cloudy 16 101.0 5 89 4
12 June 2021
23:30 SSE 4 Mostly Cloudy 16 101.1 8 75 3
22:30 S 6 Cloudy 16 101.0 9 74 4

Zoom-in to make a selection

Map of Atlantic - Labrador marine weather areas Kangiqsualujjuaq Airport Cape Kakkiviak Cape Kiglapait Cartwright Airport CFB Goose Bay Hopedale Mary's Harbour Nain Airport Makkovik Airport Saglek Tukialik Bay
Legend:
buoy Buoy
land station Land Station

Atlantic - Labrador Area

Another Region

What we are doing

Date modified: